User: anonymous   Login
Location: Six Mile Lake
(44.9000°N, 79.7170°W)
Time: 06:54:25
(UTC-04:00)
Language:

KKS-1 - Orbit

View from above orbital plane
View from above orbital plane
View from above satellite
View from above satellite

Ground track
Ground track

The orbit data is extracted from the following two-line orbital elements,

1 33499U 09002H   22181.19038875  .00000306  00000-0  52247-4 0  9997
2 33499  98.2164  63.4468 0007628 276.3850  83.6490 14.76032532722559
Epoch (UTC): 30 June 2022 04:34:09
Eccentricity: 0.0007628
inclination: 98.2164°
perigee height: 636 km
apogee height: 647 km
right ascension of ascending node: 63.4468°
argument of perigee: 276.3850°
revolutions per day: 14.76032532
mean anomaly at epoch: 83.6490°
orbit number at epoch: 72255

The dashed part of the orbit path shows where the satellite is in the earth's shadow,  

DLR